Theta_e
314 324 337 340 344 338 337 337 334 331 332 329 328 328 325 324 323 324 326 326 326 327 330 333 328 327 328 330 331 333 336 340 337 336 333 332 331 329 326 328 328 329 331 334 337 336 335 336 337
331 337 338 341 340 340 338 335 333 331 330 328 327 326 325 324 323 322 324 327 327 327 330 329 332 324 323 329 331 329 333 335 336 336 335 334 333 332 331 330 330 329 330 332 335 336 336 335 337
336 336 339 342 341 339 336 333 331 331 328 328 327 325 324 326 323 322 326 327 327 327 326 328 325 322 326 330 327 325 326 327 331 331 333 335 334 334 333 332 331 330 329 331 333 335 336 335 337
334 336 337 336 337 337 335 332 331 330 328 327 326 325 325 325 324 324 325 325 324 323 323 325 323 320 320 329 333 329 329 330 333 331 332 332 332 332 332 331 332 331 330 331 333 334 334 334 335
333 335 338 338 337 335 334 332 330 328 328 327 325 325 326 326 325 325 324 324 323 322 322 323 325 323 320 327 338 337 336 333 334 333 333 333 332 332 331 331 331 331 330 328 331 333 335 334 335
334 334 336 336 334 336 334 331 328 328 327 327 325 325 325 327 325 325 324 324 323 323 324 325 325 323 320 320 322 325 326 327 329 329 330 330 329 329 328 329 330 331 331 329 329 330 332 334 332
334 334 336 335 334 333 333 330 328 327 327 326 325 325 326 326 324 325 324 323 323 323 322 322 322 323 321 321 322 322 321 319 319 320 325 327 327 328 329 329 330 330 331 330 329 329 330 333 331
331 333 335 334 333 334 332 331 330 327 327 326 325 324 324 327 325 324 323 322 322 322 322 322 321 320 322 324 326 324 323 322 322 323 325 326 327 327 326 328 329 330 329 329 328 329 329 331 330
331 333 333 332 331 332 331 332 330 328 327 326 325 325 325 325 324 323 323 322 322 323 322 322 322 323 325 326 325 325 327 327 326 326 326 325 326 326 327 329 328 330 327 329 328 330 328 331 330
331 332 330 329 329 330 330 330 330 329 328 326 325 325 323 323 323 323 323 323 323 323 323 321 322 327 328 327 325 326 326 327 326 325 325 325 325 326 327 327 327 328 329 329 328 325 330 330 331
331 332 330 327 327 328 329 328 329 328 328 327 326 325 325 324 324 324 323 323 324 324 323 321 324 328 329 328 327 326 326 327 326 325 324 324 324 325 326 326 325 327 327 327 327 326 326 324 329
331 330 328 326 326 328 328 328 328 327 327 326 325 323 324 325 325 324 323 323 324 324 322 325 328 329 330 329 327 326 327 327 326 326 327 325 326 325 325 326 326 325 326 327 328 327 323 324 330
330 329 328 326 327 328 328 327 327 326 325 325 324 323 323 324 325 324 324 324 325 324 323 328 329 331 331 329 329 328 327 327 327 325 326 326 327 327 325 325 324 324 325 327 326 328 326 330 331
329 329 327 327 327 328 327 328 326 326 325 323 324 324 324 323 325 325 324 325 325 322 326 328 330 330 329 329 329 328 328 328 327 326 325 325 327 327 326 327 325 326 324 326 328 329 328 329 333
329 328 328 328 327 328 327 327 327 326 326 325 324 325 324 325 324 325 325 326 325 323 327 329 328 328 328 328 330 329 328 328 328 327 327 326 327 328 328 326 326 327 326 327 329 329 329 331 332
328 329 330 329 328 327 326 328 328 327 326 326 326 326 325 325 325 324 324 326 325 324 327 329 328 328 328 329 329 330 330 331 330 329 323 326 327 327 329 327 327 325 326 326 328 327 328 330 331
329 330 330 329 328 328 327 328 328 327 327 326 326 326 326 325 326 324 325 326 324 324 327 328 329 329 329 329 330 331 332 332 330 325 323 322 328 327 328 330 328 328 327 328 327 328 328 330 330
330 331 330 329 329 329 328 328 328 328 327 327 326 327 327 326 327 325 326 326 324 324 328 328 328 330 330 330 330 332 332 331 331 327 322 322 327 328 329 330 330 329 328 329 328 328 329 329 329
329 330 329 329 329 329 329 329 329 329 328 327 326 326 328 328 326 325 326 326 324 323 328 329 328 329 328 330 331 331 331 329 329 329 325 327 327 328 328 331 329 329 329 330 330 327 328 329 329
329 330 329 329 329 330 330 330 329 327 326 327 326 326 328 329 327 326 327 326 324 324 326 328 328 329 330 332 333 332 331 330 329 330 329 329 328 328 329 330 328 328 329 330 331 330 329 329 330
329 329 329 329 329 330 329 329 327 327 327 326 326 327 328 329 328 328 328 327 325 323 326 327 328 331 333 333 333 333 333 332 333 331 330 330 329 329 329 329 328 328 328 329 330 331 330 331 333
330 328 328 328 329 330 328 329 328 327 326 326 326 327 328 329 329 328 329 328 325 323 326 327 329 332 333 332 331 333 334 334 333 333 331 330 330 330 330 329 329 328 327 328 330 330 330 330 332
328 327 327 328 329 329 328 329 328 327 326 325 325 326 328 330 329 329 329 327 324 322 326 328 329 331 333 332 331 331 333 333 334 332 330 330 330 330 330 330 329 330 329 331 332 332 333 330 331
327 327 326 327 328 330 328 329 328 326 325 324 325 326 330 330 329 329 327 326 324 322 326 327 329 329 332 332 331 332 332 332 331 328 328 329 329 330 330 330 331 331 332 332 332 333 332 332 334
325 326 328 331 332 331 328 328 328 325 324 324 326 327 331 330 329 329 329 327 324 323 325 328 327 327 328 331 330 331 331 332 332 332 328 329 329 329 331 331 331 331 332 332 333 332 332 334 333
325 326 328 331 332 331 329 329 328 325 324 325 326 330 332 330 329 329 329 326 324 324 324 326 326 326 327 328 330 329 330 332 331 327 326 327 329 331 331 331 331 332 332 332 333 333 332 331 328
326 327 326 329 328 329 329 329 327 324 325 327 329 332 333 331 329 329 328 326 323 323 324 326 326 325 326 326 329 328 329 331 334 333 328 329 331 330 331 331 332 332 332 332 334 333 332 332 332
326 326 328 328 331 333 330 329 327 326 326 332 333 334 332 330 329 329 328 327 322 323 325 326 326 324 324 325 326 326 327 330 330 329 330 331 328 331 330 332 330 331 332 334 334 334 330 327 328
325 326 328 329 328 330 332 329 328 327 327 330 334 334 331 330 329 328 328 326 322 322 325 326 326 322 323 324 325 324 325 328 328 329 330 329 330 328 331 330 331 331 332 333 333 331 331 329 328
326 325 328 329 331 329 330 330 327 326 326 330 333 334 330 329 328 328 328 326 322 323 324 326 326 322 321 322 323 323 324 326 328 329 330 331 331 328 326 330 331 331 331 331 333 333 331 329 329
Wind_Speed
12 11 7 9 7 8 14 1 6 10 3 6 3 6 12 10 9 5 6 4 3 3 4 5 6 11 13 13 13 13 13 14 13 13 14 14 14 15 15 14 13 12 12 12 12 13 13 13 12
11 9 8 8 8 12 3 9 7 10 9 1 2 4 5 5 6 2 3 6 4 2 3 5 7 9 13 15 14 14 14 15 14 14 15 15 15 16 17 16 15 14 14 14 14 14 14 14 13
9 8 9 10 13 14 10 8 11 7 1 7 4 1 4 8 4 3 6 5 4 4 5 6 9 11 14 14 13 15 17 19 17 16 17 17 18 19 19 19 18 15 15 16 15 15 15 16 13
10 10 7 9 19 8 5 12 10 12 6 6 4 6 6 6 4 2 5 4 4 6 4 5 8 12 15 15 15 16 17 17 16 17 18 20 21 23 22 21 21 18 16 17 16 16 15 16 15
13 7 11 17 17 9 3 10 10 9 6 3 3 6 0 8 4 4 4 3 4 7 6 6 8 11 14 12 11 12 14 15 16 16 17 19 21 22 22 23 23 22 18 18 17 14 12 14 16
9 10 12 15 6 9 5 5 7 10 8 3 4 6 2 13 7 5 4 4 3 4 3 5 8 9 9 11 13 15 17 19 19 18 18 20 22 23 23 24 24 24 21 19 18 16 13 12 16
14 12 17 17 18 13 6 5 10 11 11 7 4 7 2 7 7 6 5 4 3 2 3 6 8 9 14 11 13 15 17 19 21 23 22 19 20 21 21 21 23 23 23 20 18 17 14 12 14
12 13 21 16 14 12 9 1 12 7 8 5 3 5 8 7 10 8 7 6 5 5 5 8 10 11 11 12 11 15 18 19 18 20 18 17 19 20 22 22 21 21 23 19 19 17 16 11 14
13 13 15 19 16 10 10 13 6 4 10 7 4 7 5 6 9 9 8 7 6 6 7 9 9 10 11 13 14 14 15 12 13 14 14 14 14 15 14 16 17 18 21 19 17 15 14 12 14
15 14 21 15 14 12 16 17 17 6 10 9 8 7 5 8 10 11 10 9 5 6 7 9 8 9 10 11 12 14 13 10 14 14 13 13 14 14 14 9 10 16 20 18 15 15 14 13 14
20 18 18 18 15 14 15 17 9 9 10 10 3 7 14 13 12 12 10 3 6 5 7 8 8 8 9 11 12 13 9 11 11 12 12 12 11 13 14 15 16 14 19 19 18 15 15 16 16
21 19 20 16 18 15 13 10 9 8 11 4 6 4 8 12 11 13 10 5 4 5 7 7 7 8 8 10 11 12 11 11 12 12 8 11 11 12 10 11 15 17 20 20 17 18 16 18 16
19 18 20 21 17 15 14 10 12 12 7 4 5 7 10 11 11 11 7 4 3 4 6 6 7 7 8 9 10 11 11 13 10 10 9 11 10 8 9 11 16 17 18 20 20 16 17 14 15
21 25 20 17 17 16 11 16 5 11 2 3 9 11 9 10 13 11 9 7 4 3 5 6 7 7 8 9 12 12 12 12 12 8 9 9 10 9 8 10 12 15 20 20 19 18 14 14 19
21 19 20 18 18 17 12 17 16 12 9 9 8 11 13 13 13 13 11 8 4 3 3 5 6 6 8 13 11 11 12 11 10 10 6 9 10 9 8 7 9 14 17 19 21 19 15 17 19
20 23 19 22 22 13 9 19 14 12 12 11 13 14 12 12 11 13 10 8 5 4 3 4 5 6 8 11 11 10 10 9 9 7 8 10 11 10 8 6 5 10 16 21 19 17 18 20 19
19 18 22 19 11 13 16 19 19 6 11 13 13 13 11 11 13 13 12 10 6 4 3 3 4 6 9 10 9 8 8 8 7 7 9 10 12 12 10 8 8 9 14 16 21 22 20 19 18
20 23 20 16 14 11 16 19 19 16 15 16 17 13 11 13 15 15 13 11 7 4 4 2 4 6 9 12 5 7 5 5 4 6 8 9 10 9 10 9 12 12 12 12 13 17 19 21 20
22 20 16 12 7 14 11 17 20 20 15 18 18 13 12 14 13 17 15 12 8 5 5 2 3 5 8 10 10 7 8 4 3 4 8 10 11 11 8 7 11 12 12 12 12 17 18 18 18
25 20 19 15 15 10 14 19 21 20 21 18 16 13 10 13 14 15 17 14 10 7 5 2 2 4 6 7 7 6 6 6 7 8 5 2 3 5 6 9 12 12 12 13 13 14 21 14 15
23 20 17 17 16 11 12 23 22 15 10 13 11 6 9 14 16 16 16 15 11 8 6 3 0 2 4 5 3 5 3 3 4 7 9 6 2 5 6 10 11 13 13 15 16 13 10 11 10
22 18 19 16 15 13 14 16 15 16 9 10 13 11 10 14 16 16 15 15 12 9 8 5 2 2 3 8 6 5 4 6 3 4 8 7 3 4 7 11 12 14 15 16 16 15 14 18 15
19 17 16 13 15 18 19 11 16 10 10 6 8 12 12 14 17 17 16 17 13 10 9 6 4 4 2 5 8 9 8 7 4 3 7 11 8 4 5 11 13 13 9 12 14 14 14 15 19
20 16 15 11 11 15 18 15 15 9 4 4 3 5 13 14 17 17 19 17 14 12 11 8 6 4 1 4 6 7 8 9 9 6 6 8 11 7 6 10 10 13 12 15 16 15 15 17 16
16 13 11 12 13 13 17 11 10 14 4 5 4 3 10 13 16 17 17 16 16 14 12 9 7 6 2 3 4 6 8 10 13 9 8 9 10 12 7 9 8 11 14 17 17 18 20 20 25
22 20 12 15 13 13 11 7 5 4 2 3 3 2 10 13 16 17 17 17 16 15 13 9 8 7 4 4 4 6 9 13 13 12 9 8 9 11 10 12 10 10 15 18 17 21 23 25 24
18 21 21 20 17 11 6 7 9 6 10 8 4 4 9 14 16 17 16 17 16 16 13 10 8 7 6 5 4 5 7 10 9 9 10 9 9 10 11 11 12 14 16 19 19 24 22 23 21
23 20 19 14 17 16 13 10 4 10 5 8 7 7 12 16 17 16 15 17 16 16 14 11 9 8 7 6 4 5 6 8 8 8 8 7 9 12 11 12 17 17 17 19 20 22 20 24 21
21 20 15 15 13 11 10 8 8 6 5 2 9 11 16 17 17 16 15 18 17 16 16 13 11 9 8 7 6 5 6 8 8 9 11 11 10 12 12 11 13 16 19 19 22 22 20 18 15
26 26 22 10 18 12 12 3 10 7 5 5 9 13 17 17 17 16 16 18 18 17 16 14 12 11 10 9 8 7 7 8 9 10 11 10 12 12 13 11 13 14 14 19 19 19 18 19 18
Wind_Direction
162 164 202 239 245 223 263 231 25 289 201 79 24 327 347 327 0 6 112 113 97 103 167 215 230 235 246 252 257 264 269 256 262 253 249 252 263 281 290 292 292 287 277 269 267 245 246 252 258
168 185 227 273 259 266 58 21 334 0 15 22 223 255 260 17 33 65 207 145 172 182 205 245 239 268 262 264 266 276 274 270 271 262 256 255 260 272 282 285 285 281 272 267 263 259 243 244 250
198 218 273 246 246 272 342 14 358 9 151 236 235 102 3 60 88 23 77 157 204 235 235 222 251 260 260 263 262 270 275 279 283 281 272 269 270 272 274 273 274 274 265 259 258 257 254 240 243
192 215 238 254 280 297 348 330 337 312 171 240 312 301 128 76 120 95 137 194 247 270 274 262 266 266 261 251 252 265 269 277 279 280 275 274 275 274 275 273 263 262 256 253 252 258 261 240 242
238 263 266 262 261 306 332 310 337 297 280 231 144 309 101 137 131 148 178 224 261 294 303 315 294 281 267 262 262 268 267 269 272 272 272 276 276 276 274 267 264 253 248 245 248 255 262 256 238
231 233 274 272 299 252 274 356 311 289 297 158 268 308 10 121 163 181 199 211 284 306 297 293 300 289 283 280 277 276 276 277 277 277 277 277 277 275 273 266 257 248 240 235 241 249 258 258 243
251 268 265 282 287 303 359 26 290 312 304 314 60 305 66 164 165 177 198 209 229 252 271 293 293 290 296 288 290 289 287 284 284 283 282 277 275 274 270 263 254 246 232 228 235 245 251 261 246
254 264 269 275 281 284 279 304 272 279 310 22 335 279 339 127 158 184 210 213 232 237 284 303 290 297 294 291 291 295 296 295 293 294 287 280 273 266 266 260 251 240 228 224 229 238 245 255 245
243 259 263 269 286 301 305 279 282 162 279 216 264 282 44 143 175 203 217 229 247 282 287 299 302 303 297 293 290 290 298 292 297 297 292 288 282 272 264 261 244 230 220 220 223 234 242 248 236
234 248 259 285 302 302 301 295 298 241 251 233 220 240 211 199 201 219 217 239 234 285 312 308 302 295 299 295 291 290 291 287 291 295 288 282 280 273 266 254 239 223 212 217 223 233 237 238 227
229 246 271 285 289 291 311 290 301 288 274 303 279 244 181 207 214 229 245 263 330 321 306 318 300 292 295 298 300 292 288 299 278 280 278 277 273 271 255 247 231 223 219 217 218 229 229 222 216
243 243 269 277 271 273 279 306 298 278 274 337 319 298 193 213 218 226 237 228 249 321 313 312 300 297 292 299 304 296 300 288 269 266 260 272 263 270 263 246 235 221 211 209 205 217 212 217 208
234 252 254 260 259 261 273 274 271 292 307 293 255 238 234 221 224 218 230 212 270 295 319 308 309 301 298 305 296 293 284 276 284 280 270 264 280 286 278 259 235 220 212 198 200 210 213 188 209
235 237 251 258 254 256 237 264 180 271 67 285 253 249 239 230 216 198 208 216 238 290 300 311 310 304 310 299 288 278 277 272 275 278 277 267 266 267 273 260 230 223 210 202 192 203 201 201 199
254 255 258 255 254 251 237 255 243 253 197 244 252 237 239 217 211 203 200 204 229 260 284 311 294 313 306 290 286 291 282 274 279 286 287 272 265 263 266 268 219 203 190 193 188 198 179 185 195
245 244 254 250 227 225 216 257 259 216 241 252 250 232 236 221 210 201 190 193 206 248 277 301 315 324 325 308 303 291 290 283 278 268 262 273 268 259 252 239 210 185 181 188 181 179 177 182 193
226 245 242 249 182 224 208 260 280 221 276 268 272 264 231 210 204 196 191 191 200 220 247 301 322 323 323 310 305 305 303 280 273 265 262 275 266 251 239 216 198 180 180 196 175 182 178 179 189
226 232 232 251 218 196 255 254 258 249 248 265 264 239 233 211 197 192 197 188 190 207 223 272 317 322 326 310 310 339 323 298 264 251 252 264 269 251 236 226 185 183 182 199 190 173 166 178 178
247 262 270 275 279 250 259 273 282 288 278 269 269 236 229 207 191 187 192 187 187 205 218 246 324 320 333 322 345 358 356 15 323 290 275 271 264 245 229 190 167 171 177 186 171 171 173 194 152
243 255 261 260 270 272 282 285 284 288 271 278 267 234 213 196 188 178 186 189 190 194 198 200 305 333 334 351 351 1 355 31 30 20 14 309 170 208 198 177 171 174 168 172 175 176 182 170 164
229 242 251 259 275 257 282 269 264 265 268 263 253 240 208 195 188 181 183 189 185 190 182 167 86 23 2 354 12 16 313 286 320 358 34 25 192 156 168 176 179 172 171 169 175 176 164 152 150
234 227 247 266 272 264 268 291 293 276 273 267 223 206 224 183 182 181 183 185 185 179 170 157 135 77 63 10 12 346 339 326 351 1 9 1 81 126 176 177 175 181 196 162 175 178 177 166 161
236 241 248 234 254 269 264 265 279 264 249 268 239 209 179 174 181 180 182 179 181 169 167 164 151 112 71 41 18 18 14 11 357 43 21 20 64 91 141 177 189 195 194 171 177 176 174 175 160
233 227 252 262 256 256 257 258 267 279 100 303 271 106 152 171 173 174 176 174 172 174 167 168 155 133 128 47 34 28 26 14 25 58 43 40 48 54 120 147 170 184 185 174 173 167 159 146 144
213 213 223 228 232 248 247 240 278 296 306 291 322 149 152 165 169 170 171 175 170 174 169 173 165 146 155 79 50 24 22 33 48 67 79 38 46 47 85 128 125 150 161 160 159 153 141 138 129
200 211 224 215 233 249 139 236 276 215 26 263 269 329 133 164 168 170 174 174 174 173 174 177 168 159 158 100 76 47 31 61 66 80 79 52 60 53 82 102 112 129 142 144 138 135 130 126 132
190 216 224 259 286 291 236 235 191 193 228 200 148 167 155 166 164 171 171 173 176 173 176 176 162 159 160 127 106 74 60 66 69 80 79 68 55 63 85 93 93 114 119 127 131 132 126 129 122
212 201 219 230 247 261 241 237 236 178 190 105 149 169 157 163 166 171 170 172 176 176 173 179 173 170 164 141 133 111 82 78 82 66 70 77 60 72 93 85 89 102 109 118 127 130 137 137 130
205 226 206 245 223 235 248 266 106 139 134 346 145 160 165 168 169 171 171 171 176 175 176 181 184 166 166 148 139 126 103 97 89 77 70 88 87 74 90 86 91 94 105 120 121 128 135 134 149
212 211 208 214 222 251 270 240 106 175 216 177 153 161 168 172 171 169 171 171 175 177 172 179 185 174 174 161 148 133 122 108 98 91 88 91 96 78 93 102 107 105 106 118 127 131 143 139 132